Location: Carroll
(32.4774°N, 95.5202°W)
Time: 01:29:36
(UTC+01:00)

Daily predictions for brighter satellites

Satellite Brightness Start Highest point End
(mag) Time Altitude Azimuth Time Altitude Azimuth Time Altitude Azimuth
BREEZE-M TANK 4.2 00:21:12 10° SSW 00:25:25 62° SE 00:43:08 10° NE
Cosmos 2082 4.3 00:45:23 10° N 00:50:29 35° ENE 00:55:34 10° SE
SJ-7 4.3 00:49:40 10° SSE 00:53:41 88° ENE 00:57:40 10° N
ISS -3.2 00:51:04 10° NNW 00:54:09 36° NE 00:57:13 10° ESE
ERS-2 3.7 00:52:40 10° ESE 00:54:55 16° ENE 00:57:11 10° NNE
CZ-2C R/B 4.4 00:50:52 10° SSW 00:55:35 36° W 01:00:20 10° NNW
Landsat 4 4.2 00:52:21 10° NNE 00:56:00 41° E 00:59:36 10° S
Cosmos 2266 Rocket 4.2 00:51:38 10° N 00:57:30 48° E 01:03:27 10° SSE
Cosmos 1655 Rocket 4.4 00:51:39 10° N 00:58:01 75° W 01:04:23 10° S
CORIOLIS 4.1 00:56:19 10° SSE 01:01:42 73° ENE 01:07:05 10° N
Cosmos 2227 Rocket 2.2 00:56:45 10° NNW 01:02:20 58° ENE 01:07:52 10° SSE
Cosmos 1455 Rocket 3.1 00:58:07 10° N 01:02:32 87° W 01:06:53 10° S
Ariane Rocket 3.1 01:01:24 10° S 01:06:28 82° WSW 01:11:32 10° NNW
Cosmos 1544 Rocket 3.9 01:02:28 10° NNW 01:06:48 70° W 01:11:04 10° S
YAOGAN 1 2.7 01:03:22 10° SSE 01:07:32 49° ENE 01:11:42 10° N
Cosmos 1271 Rocket 3.5 01:04:20 10° NNW 01:08:05 55° W 01:11:52 10° S
Delta 2 Rocket 4.0 01:04:51 10° WNW 01:10:33 89° NNE 01:15:44 10° ESE
USA 116 3.5 01:09:35 10° N 01:12:40 65° WNW 01:15:45 10° SSW
Cosmos 1980 Rocket 2.7 01:09:25 10° S 01:14:40 40° ESE 01:19:35 12° NE
Meteor 2-9 Rocket 4.0 01:09:48 10° N 01:15:16 79° E 01:20:36 10° S
Meteor 1-23 Rocket 4.2 01:10:19 10° S 01:16:04 74° E 01:21:46 10° NNE
Cosmos 1125 Rocket 4.3 01:14:19 10° SSW 01:19:29 55° WNW 01:24:41 10° N
Cosmos 1484 Rocket 4.3 01:16:30 10° S 01:20:17 42° W 01:24:07 10° NNW
Cosmos 1269 Rocket 4.1 01:17:19 10° N 01:22:29 51° ENE 01:27:36 10° SSE
MONITOR-E 4.3 01:24:37 10° SSE 01:27:31 45° ENE 01:30:27 10° N
COSMO-SKYMED 1 2.5 01:23:58 10° NNE 01:28:19 88° W 01:32:39 10° SSW
SJ 16-02 2.7 01:24:33 10° SW 01:28:38 38° WNW 01:32:46 10° N
Cosmos 2297 Rocket 2.1 01:23:16 10° NNW 01:28:56 84° ENE 01:34:36 10° SSE
Atlas Centaur 2 2.6 01:24:09 10° W 01:29:28 47° SSW 01:33:25 12° SE
USA 238 DEB 3.8 01:22:33 10° NNW 01:29:43 89° WSW 01:36:56 10° SSE
USA 238 3.8 01:22:39 10° NNW 01:29:49 89° WSW 01:37:02 10° SSE
Shenzhou-11 Module 4.1 01:28:58 10° S 01:30:49 15° SE 01:31:01 15° SE
IRS-1A Rocket 4.3 01:25:21 10° SSE 01:30:58 83° WSW 01:36:32 10° NNW
Cosmos 1184 Rocket 4.1 01:28:55 10° SSE 01:31:00 23° ESE 01:31:00 23° ESE
Cosmos 1048 Rocket 4.0 01:27:29 10° NNW 01:32:54 83° ENE 01:38:14 10° SSE
Lacrosse 5 rocket 3.3 01:31:31 10° SSE 01:33:23 14° ESE 01:33:23 14° ESE
Cosmos 2344 4.5 01:32:03 10° SSE 01:38:16 26° ESE 01:40:34 23° E
RESURS DK-1 2.5 01:39:14 10° S 01:43:12 49° ESE 01:44:18 38° ENE
Meteor 2-11 Rocket 4.4 01:39:29 10° S 01:45:38 87° E 01:51:49 10° N
Cosmos 1553 Rocket 4.3 01:41:25 10° SSE 01:47:27 46° E 01:52:38 14° NNE
Cosmos 724 4.2 01:42:07 10° NNW 01:47:56 89° WSW 01:53:46 10° SSE
Cosmos 1417 Rocket 4.5 01:44:39 10° SSE 01:50:37 57° E 01:56:40 10° NNE
Okean 1-7 Rocket 3.4 01:46:27 10° S 01:50:49 84° E 01:54:15 17° N
NOAA 12 4.0 01:46:37 10° SSE 01:51:53 75° ENE 01:57:07 10° N
Cosmos 1025 Rocket 3.3 01:48:09 10° SSW 01:52:25 66° W 01:56:41 10° N
ALOS 2.1 01:47:57 10° SSE 01:52:37 85° ENE 01:57:17 10° N
SL-16 R/B 3.1 01:51:17 10° SSE 01:55:26 28° ESE 01:55:26 28° ESE
GOES 2 Rocket 3.9 01:52:14 10° W 01:56:29 47° S 01:58:51 27° SE
NOSS 3-2 (A) 4.0 01:50:52 10° NNW 01:58:41 82° ENE 02:07:01 10° SSE
CZ-4 R/B 4.0 01:56:06 10° SSW 01:59:04 21° W 02:02:06 10° NW
DELTA 2 R/B (1) 4.0 01:54:13 10° WNW 01:59:33 45° N 02:00:47 39° NE
Cosmos 2322 Rocket 3.1 01:56:16 10° SSE 02:00:14 29° ESE 02:00:14 29° ESE
FENGYUN 3A 3.6 01:56:03 10° SSE 02:01:26 86° WSW 02:06:50 10° NNW
Cosmos 2360 4.3 01:57:34 10° SSW 02:03:17 79° WNW 02:07:03 22° NNE
Hubble Space Telescope 2.7 02:01:16 10° WSW 02:04:37 24° SSW 02:06:32 17° SSE
NOSS 3-2 (C) 4.0 01:58:37 10° NNW 02:06:23 71° ENE 02:14:41 10° SE
IUS-26 SRM-1 4.5 02:03:34 10° SW 02:07:19 20° S 02:07:46 19° S
Skynet4D Del rocket 4.3 02:04:09 10° WSW 02:09:56 47° S 02:11:57 33° SE
OAO 1 Rocket 4.4 02:06:17 10° WNW 02:11:37 69° N 02:12:22 60° NE
ATLAS 3B R/B 3.8 02:06:04 10° NW 02:12:11 42° WSW 02:18:14 10° S
SL-8 R/B 3.5 02:07:56 10° SW 02:12:45 87° SE 02:13:14 72° ENE
USA 215 4.1 02:08:23 10° SSE 02:14:40 49° SW 02:20:58 10° NW
Cosmos 1697 Rocket 4.4 02:12:45 10° WSW 02:17:35 29° WNW 02:22:28 10° N
ERS-2 4.5 02:25:21 10° SSW 02:28:21 24° W 02:31:21 10° NW
ISS -0.8 02:28:31 10° W 02:30:21 14° SW 02:31:40 12° SSW
FengYun 1-2 T 4.4 02:36:03 10° S 02:41:38 73° WSW 02:47:17 10° NNW
CENTAUR R/B 3.3 02:45:15 10° NNW 02:51:52 55° NNE 02:51:52 55° NNE
Thor Agena Rocket 4.4 02:52:57 45° NW 02:53:30 47° WNW 02:58:31 10° SW
Cosmos 1980 Rocket 4.2 02:54:20 10° WSW 02:58:45 23° WNW 03:01:24 17° NNW
Lacrosse 5 rocket 4.2 03:08:27 10° SW 03:09:08 14° WSW 03:09:08 14° WSW
Atlas Centaur 2 4.5 03:15:14 10° WSW 03:16:06 12° SW 03:16:06 12° SW
SL-16 R/B 4.3 03:34:58 10° SW 03:37:22 22° WSW 03:37:22 22° WSW
Cosmos 2322 Rocket 4.5 03:40:14 10° WSW 03:42:07 19° WSW 03:42:07 19° WSW
Cosmos 1697 Rocket 4.4 11:18:47 26° SE 11:18:47 26° SE 11:21:12 10° SSE
Lacrosse 5 rocket 4.0 11:40:56 16° SSE 11:40:56 16° SSE 11:41:51 10° SSE
RESURS DK-1 4.2 11:49:31 28° ESE 11:49:31 28° ESE 11:51:46 10° SE
